Location: Unspecified
(0.0000°N, 0.0000°E)
Time: 21:29:27
(UTC+00:00)

STARLINK-1934 - Visible Passes

Search period start: 12 January 2025 00:00
Search period end: 22 January 2025 00:00
Orbit: 546 x 548 km, 53.1° (Epoch: 12 January)

Date Brightness Start Highest point End Pass type
(mag) Time Alt. Az. Time Alt. Az. Time Alt. Az.
12 Jan 4.5 18:37:26 10° S 18:41:09 32° SE 18:44:45 10° ENE visible
12 Jan 6.3 20:18:38 10° W 20:20:24 13° NW 20:20:24 13° NW visible
13 Jan 3.9 18:30:49 10° SSW 18:34:50 51° SE 18:38:49 10° NE visible
17 Jan 6.3 04:31:00 10° NNE 04:33:04 13° NE 04:35:08 10° E visible
18 Jan 5.7 04:25:13 17° NNE 04:26:37 20° NE 04:29:43 10° ESE visible
19 Jan 5.0 04:19:47 31° NE 04:20:06 31° NE 04:23:47 10° ESE visible
20 Jan 4.6 04:14:17 43° E 04:14:17 43° E 04:17:33 10° SE visible
21 Jan 5.1 04:08:43 34° SE 04:08:43 34° SE 04:11:06 10° SE visible
